User: anonymous   Login
Location: Roanoke
(37.2710°N, 79.9420°W)
Time: 02:07:58
(UTC-05:00)
Language:

FENGYUN 3A - Orbit

View from above orbital plane
View from above orbital plane
View from above satellite
View from above satellite

Ground track
Ground track

The orbit data is extracted from the following two-line orbital elements,

1 32958U 08026A   15031.72104192  .00000051  00000-0  43956-4 0  7657
2 32958 098.5229 087.4814 0008981 275.5675 084.4461 14.19520770346263
Epoch (UTC): 31 January 2015 17:18:18
Eccentricity: 0.0008981
inclination: 98.5229°
perigee height: 820 km
apogee height: 833 km
right ascension of ascending node: 87.4814°
argument of perigee: 275.5675°
revolutions per day: 14.19520770
mean anomaly at epoch: 84.4461°
orbit number at epoch: 34626

The dashed part of the orbit path shows where the satellite is in the earth's shadow,  

DLR